This demonstration page uses our WeatherBlox Daily Observations layout. Learn more.

Left ArrowRight Arrow

39.92423, -83.80882

Hourly Observations for September 25, 2021

Temp ( °F °C ) Dew Point ( °F °C ) Humidity (%) Winds ( mph kmh ) Pressure ( in mb ) Visibility ( mi km ) Precip ( " mm )
12:56 am 00:56 Clear 56 13.3 51 10.6 84 84 S 6 9 30.03 1017 10 16 N/A
1:56 am 01:56 Clear 55 12.8 51 10.6 87 87 SSW 3 6 30.02 1017 10 16 N/A
2:56 am 02:56 Clear 56 13.3 51 10.6 84 84 SSW 5 7 30.01 1016 10 16 N/A
3:56 am 03:56 Clear 56 13.3 52 11.1 87 87 SSW 5 7 30.00 1016 10 16 N/A
4:56 am 04:56 Clear 56 13.3 51 10.6 84 84 SSW 7 11 29.98 1015 10 16 N/A
5:56 am 05:56 Partly Cloudy 57 13.9 51 10.6 81 81 SSW 7 11 29.98 1015 10 16 N/A
6:56 am 06:56 Clear 56 13.3 52 11.1 87 87 SW 9 15 30.00 1016 10 16 N/A
7:56 am 07:56 Cloudy 57 13.9 53 11.7 87 87 SW 8 13 30.03 1017 10 16 N/A
8:56 am 08:56 Cloudy 58 14.4 55 12.8 90 90 SSW 5 7 30.02 1017 10 16 N/A
9:56 am 09:56 Mostly Cloudy with Light Rain 59 15 55 12.8 87 87 WSW 9 15 30.01 1016 10 16 0.00 0.00
10:56 am 10:56 Partly Cloudy 61 16.1 55 12.8 81 81 W 12 19 30.03 1017 10 16 0.00 0.00
11:08 am 11:08 Mostly Cloudy 61 16 55 13 83 83 W 12 19 30.02 1017 10 16 N/A
11:56 am 11:56 Cloudy 59 15 54 12.2 83 83 NW 13 20 30.04 1017 10 16 N/A
12:37 pm 12:37 Mostly Cloudy 63 17 55 13 77 77 WNW 10 17 30.02 1017 10 16 N/A
12:56 pm 12:56 Mostly Cloudy 63 17.2 53 11.7 70 70 W 13 20 30.04 1017 10 16 N/A
1:06 pm 13:06 Cloudy 63 17 54 12 73 73 WNW 13 20 30.03 1017 10 16 N/A
1:41 pm 13:41 Mostly Cloudy 64 18 52 11 64 64 W 10 17 30.03 1017 10 16 N/A
1:56 pm 13:56 Mostly Cloudy 64 17.8 49 9.4 58 58 W 13 20 30.04 1017 10 16 N/A
2:56 pm 14:56 Mostly Cloudy 68 20 45 7.2 44 44 W 9 15 30.03 1017 10 16 N/A
3:56 pm 15:56 Partly Cloudy 69 20.6 47 8.3 45 45 W 14 22 30.02 1017 10 16 N/A
4:56 pm 16:56 Mostly Cloudy 68 20 46 7.8 45 45 W 9 15 30.02 1017 10 16 N/A
5:56 pm 17:56 Mostly Sunny 67 19.4 42 5.6 41 41 W 13 20 30.03 1017 10 16 N/A
6:56 pm 18:56 Sunny 64 17.8 41 5 43 43 WNW 10 17 30.04 1017 10 16 N/A
7:56 pm 19:56 Clear 57 13.9 44 6.7 62 62 SW 3 6 30.04 1017 10 16 N/A
8:56 pm 20:56 Clear 52 11.1 47 8.3 83 83 SW 3 6 30.06 1018 10 16 N/A
9:56 pm 21:56 Clear 52 11.1 45 7.2 77 77 SSW 7 11 30.06 1018 10 16 N/A
10:56 pm 22:56 Clear 51 10.6 45 7.2 80 80 SW 7 11 30.07 1018 10 16 N/A
11:56 pm 23:56 Clear 51 10.6 46 7.8 83 83 SW 7 11 30.08 1019 10 16 N/A

Powered by AerisWeather